This is the latest recevied weather packets stored in our database for station/object KQ4HDO. If no packets are shown the sender has not sent any weather packets the latest 10 day(s).
| Time | Temp. | Humidity | Pressure | Rain* | Wind** | Luminosity | Snow |
|---|---|---|---|---|---|---|---|
| 1777896903 | 14.44° C | 78% | 1006.4 hPa | 0 mm | - | - | - |
| 1777894503 | 12.78° C | 90% | 1006.6 hPa | 0 mm | - | - | - |
| 1777893003 | 12.78° C | 88% | 1006.5 hPa | 0 mm | - | - | - |
| 1777891203 | 13.33° C | 89% | 1006.6 hPa | 0 mm | - | - | - |
| 1777888503 | 13.33° C | 88% | 1007.1 hPa | 0 mm | - | - | - |
| 1777886237 | 13.89° C | 86% | 1006.9 hPa | 0 mm | - | - | - |
| 1777884603 | 13.33° C | 88% | 1006.2 hPa | 0 mm | - | - | - |
| 1777884303 | 13.33° C | 88% | 1006.4 hPa | 0 mm | - | - | - |
| 1777882203 | 13.33° C | 89% | 1006.7 hPa | 0 mm | - | - | - |
| 1777881903 | 12.78° C | 90% | 1006.6 hPa | 0 mm | - | - | - |
| 1777880403 | 13.33° C | 91% | 1007 hPa | 0 mm | - | - | - |
| 1777877703 | 13.33° C | 92% | 1007.1 hPa | 0 mm | - | - | - |
| 1777875303 | 13.89° C | 91% | 1007.6 hPa | 0 mm | - | - | - |
| 1777874403 | 14.44° C | 91% | 1007.7 hPa | 0 mm | - | - | - |
| 1777873803 | 14.44° C | 92% | 1007.8 hPa | 0 mm | - | - | - |
| 1777872903 | 13.89° C | 92% | 1007.7 hPa | 0 mm | - | - | - |
| 1777871703 | 13.89° C | 92% | 1007.7 hPa | 0 mm | - | - | - |
| 1777870803 | 13.89° C | 92% | 1007.5 hPa | 0 mm | - | - | - |
| 1777870203 | 13.89° C | 91% | 1007.3 hPa | 0 mm | - | - | - |
| 1777868703 | 14.44° C | 90% | 1007.2 hPa | 0 mm | - | - | - |
| 1777866303 | 15° C | 88% | 1008.1 hPa | 1.02 mm | - | - | - |
| 1777866003 | 15° C | 88% | 1008.2 hPa | 1.02 mm | - | - | - |
| 1777864503 | 17.22° C | 74% | 1008.9 hPa | 0.76 mm | - | - | - |
| 1777863603 | 17.78° C | 71% | 1007.5 hPa | 0 mm | - | - | - |
| 1777863303 | 17.78° C | 70% | 1007.7 hPa | 0 mm | - | - | - |
* Rain latest hour (hover to see other rain measurements)
** Current wind speed in m/s (hover to see current wind gust speed)